Miscellaneous Local Product
Issued by NWS North Platte, NE

Home | Current Version | Previous Version | Graphics & Text | Print | Product List | Glossary On
Versions: 1 2 3 4 5 6 7 8 9 10 11 12 13 14 15 16 17 18 19 20 21 22 23 24 25 26 27 28 29 30 31 32 33 34 35 36 37 38 39 40 41 42 43 44 45 46 47 48 49 50
498
AXUS43 KLBF 292310
MISLBF


WESTERN AND NORTH CENTRAL NEBRASKA HOURLY WEATHER ROUNDUP
NATIONAL WEATHER SERVICE NORTH PLATTE NE
600 PM CDT MON AUG 29 2016

NOTE: "FAIR" INDICATES FEW OR NO CLOUDS BELOW 12,000 FEET WITH NO
SIGNIFICANT WEATHER AND/OR OBSTRUCTIONS TO VISIBILITY.

NOTE: STATIONS NOT REPORTING VARIABLES SUCH AS SKY/WEATHER OR
PRESSURE ARE PROVIDED BY RAWS AND APRS NETWORKS AND ARE NOT UNDER
NATIONAL WEATHER SERVICE QUALITY CONTROL.

...OBSERVATIONS IN AND NEAR THE EASTERN PANHANDLE OF NEBRASKA...

CITY           SKY/WX    TMP DP  RH WIND       PRES   REMARKS
PINE RIDGE     MOSUNNY   84  60  44 E5        30.20S
CHADRON        CLOUDY    87  52  29 E12       30.19S
ALLIANCE       LGT RAIN  70  56  61 SE18G32   30.24R
SIDNEY         CLOUDY    68  60  75 S8        30.27R
CRESCENT LAKE    N/A     72  63  72 S5G13       N/A
$$

...OBSERVATIONS IN NORTHERN NEBRASKA AND FAR SOUTHERN SOUTH DAKOTA...

CITY           SKY/WX    TMP DP  RH WIND       PRES   REMARKS
WINNER         FAIR      88  67  49 SE12      30.13S HX  91
VALENTINE      CLOUDY    84  60  44 S13       30.16S
THEDFORD       CLOUDY    82  62  51 SE7       30.20F
AINSWORTH      CLOUDY    82  63  52 S7        30.18S
O`NEILL        CLOUDY    84  59  41 SW3       30.16S
ORD            MOSUNNY   82  64  54 S7        30.15S
BROKEN BOW     MOSUNNY   79  66  64 VRB5      30.18R
VALENTINE NWR    N/A     83  59  43 S8          N/A
BUTTE            N/A     83  67  57 S5          N/A
HALSEY           N/A     80  61  51 SE6         N/A
EWING            N/A     83  68  60 CALM        N/A
$$

...OBSERVATIONS IN SOUTHWEST NEBRASKA AND FAR NORTHEAST COLORADO...

CITY           SKY/WX    TMP DP  RH WIND       PRES   REMARKS
WRAY           FAIR      79  54  41 S10G17    30.23R
HOLYOKE        FAIR      79  63  57 SE7       30.23R
IMPERIAL       CLOUDY    77  61  57 S8        30.22R
NORTH PLATTE   CLOUDY    79  64  60 S7        30.20R
MCCOOK         CLOUDY    78  63  59 SE5       30.20R
LEXINGTON      CLOUDY    78  66  66 SW6       30.19R
STAPLETON        N/A     79  65  61 CALM        N/A
GOTHENBURG       N/A     79  63  57 S3          N/A
CALLAWAY         N/A     77  68  74 S6          N/A
$$

...OBSERVATIONS IN CENTRAL LINCOLN COUNTY AREA...

CITY           SKY/WX    TMP DP  RH WIND       PRES   REMARKS
N.P. AIRPORT   CLOUDY    79  64  60 S7        30.20R
N.P. DOWNTOWN    N/A     78  66  66 CALM        N/A
N.P. SOUTHEAST   N/A     78  67  68 CALM        N/A
N.P. HILLCREST   N/A     78  65  64 S3          N/A
$$

...SOME OBSERVATIONS FROM AROUND THE REGION...

CITY           SKY/WX    TMP DP  RH WIND       PRES   REMARKS
DENVER         CLOUDY    70  49  47 SW17G28   30.29F
LARAMIE        CLOUDY    73  31  21 E14       30.40S
CHEYENNE       CLOUDY    77  40  26 E17       30.34R
SCOTTSBLUFF    CLOUDY    85  55  35 SE10      30.22S
RAPID CITY     SUNNY     83  58  42 N9        30.22F
BISMARCK       SUNNY     81  49  32 NE9       30.22S
PIERRE         MOSUNNY   90  65  43 NE14      30.10S HX  92
SIOUX FALLS    CLOUDY    82  69  64 S7        30.14S
OMAHA          LGT RAIN  75  69  81 E14       30.15R
GRAND ISLAND   CLOUDY    81  66  60 S18G28    30.17R
KANSAS CITY    MOSUNNY   87  70  56 SE9       30.10F HX  92
WICHITA        CLOUDY    84  70  62 SE8       30.10F
OKLAHOMA CITY  CLOUDY    86  67  52 E9        30.07R
DALLAS         PTSUNNY   83  72  69 W5        29.98F
AMARILLO       LGT RAIN  66  62  87 CALM      30.22F
DODGE CITY     PTSUNNY   77  68  73 SE7       30.18F
HAYS           CLOUDY    68  59  73 E10       30.19F
GOODLAND       MOSUNNY   74  60  61 S10       30.22F
$$




USA.gov is the U.S. government's official web portal to all federal, state and local government web resources and services.